Location: Black Swamp Observatory
(41.3920°N, 84.1250°W)
Time: 00:44:15
(UTC-04:00)

Envisat - Visible Passes

Search period start: 15 September 2024 00:00
Search period end: 25 September 2024 00:00
Orbit: 762 x 764 km, 98.3° (Epoch: 14 September)

Date Brightness Start Highest point End Pass type
(mag) Time Alt. Az. Time Alt. Az. Time Alt. Az.
15 Sep 5.4 03:33:19 10° NE 03:36:07 16° E 03:36:07 16° E visible
15 Sep 3.0 05:10:44 10° N 05:15:44 59° WNW 05:16:15 56° W visible
16 Sep 3.3 04:33:16 10° NNE 04:38:15 62° E 04:38:15 62° E visible
16 Sep 4.6 06:13:33 10° NNW 06:16:45 17° WNW 06:18:24 15° W visible
17 Sep 4.8 03:56:24 10° NE 04:00:15 27° E 04:00:15 27° E visible
17 Sep 3.6 05:35:05 10° N 05:39:40 35° WNW 05:40:23 34° W visible
18 Sep 5.8 03:21:05 10° ENE 03:22:15 11° E 03:22:15 11° E visible
18 Sep 2.8 04:57:17 10° N 05:02:23 79° WNW 05:02:24 79° WNW visible
18 Sep 5.0 06:39:53 10° NW 06:40:27 10° WNW 06:41:02 10° WNW visible
19 Sep 3.9 04:20:00 10° NNE 04:24:23 44° E 04:24:23 44° E visible
19 Sep 4.2 05:59:41 10° NNW 06:03:31 22° WNW 06:04:32 21° W visible
20 Sep 5.2 03:43:26 10° NE 03:46:22 20° E 03:46:22 20° E visible
20 Sep 3.2 05:21:30 10° N 05:26:21 46° WNW 05:26:31 46° WNW visible
21 Sep 3.1 04:43:53 10° NNE 04:48:31 71° NE 04:48:31 71° NE visible
21 Sep 4.7 06:24:49 10° NNW 06:27:15 14° WNW 06:28:39 12° WNW visible
22 Sep 4.5 04:06:48 10° NNE 04:10:30 32° ENE 04:10:30 32° ENE visible
22 Sep 3.9 05:45:56 10° N 05:50:14 28° WNW 05:50:39 28° WNW visible
23 Sep 5.6 03:30:42 10° NE 03:32:29 14° ENE 03:32:29 14° ENE visible
23 Sep 3.0 05:07:59 10° N 05:12:38 60° NW 05:12:38 60° NW visible
24 Sep 3.7 04:30:32 10° NNE 04:34:36 50° ENE 04:34:36 50° ENE visible
24 Sep 4.5 06:10:43 10° NNW 06:14:01 18° WNW 06:14:45 17° WNW visible
